This demonstration page uses our WeatherBlox Daily Observations layout. Learn more.

Left ArrowRight Arrow

44.89941, -97.11507

Hourly Observations for May 22, 2019

Temp ( °F °C ) Dew Point ( °F °C ) Humidity (%) Winds ( mph kmh ) Pressure ( in mb ) Visibility ( mi km ) Precip ( " mm )
12:30 am 00:30 Cloudy with Light Rain 44 6.7 41 5 89 89 E 23 37 29.54 1000 10 16 0.02 0.51
12:37 am 00:37 Cloudy with Light Rain 44 6.7 41 5 89 89 E 26 43 29.53 1000 10 16 0.02 0.51
12:53 am 00:53 Cloudy with Light Rain 44 6.7 42 5.6 93 93 E 23 37 29.51 999 10 16 0.03 0.76
1:53 am 01:53 Cloudy 45 7.2 42 5.6 90 90 E 22 35 29.48 998 10 16 0.00 0.03
2:53 am 02:53 Cloudy 45 7.2 42 5.6 90 90 E 17 28 29.46 998 10 16 0.00 0.00
3:53 am 03:53 Cloudy with Mist and Fog 45 7.2 43 6.1 93 93 E 14 22 29.44 997 6 10 0.01 0.25
4:53 am 04:53 Cloudy 45 7.2 43 6.1 93 93 E 15 24 29.43 997 10 16 0.00 0.00
5:53 am 05:53 Cloudy with Light Rain 45 7.2 43 6.1 93 93 E 14 22 29.40 996 9 14 0.00 0.03
6:53 am 06:53 Cloudy with Light Rain 45 7.2 43 6.1 93 93 ENE 13 20 29.41 996 6 10 0.04 1.02
7:11 am 07:11 Cloudy with Light Rain 46 7.8 43 6.1 89 89 ENE 12 19 29.41 996 10 16 0.00 0.03
7:37 am 07:37 Cloudy with Light Rain 45 7.2 44 6.7 97 97 ENE 12 19 29.42 996 7 11 0.03 0.76
7:53 am 07:53 Cloudy with Light Rain 46 7.8 44 6.7 93 93 ENE 14 22 29.41 996 7 11 0.05 1.27
8:45 am 08:45 Cloudy with Light Rain 47 8.3 45 7.2 93 93 ENE 8 13 29.41 996 9 14 0.04 1.02
8:53 am 08:53 Cloudy with Light Rain 47 8.3 45 7.2 93 93 ENE 9 15 29.41 996 10 16 0.05 1.27
9:12 am 09:12 Cloudy with Light Rain 48 8.9 46 7.8 93 93 ENE 9 15 29.41 996 10 16 0.00 0.03
9:53 am 09:53 Cloudy with Light Rain 49 9.4 47 8.3 93 93 ENE 7 11 29.41 996 10 16 0.00 0.03
10:53 am 10:53 Cloudy 52 11.1 48 8.9 86 86 Calm 29.41 996 10 16 0.01 0.25
11:26 am 11:26 Cloudy 52 11.1 48 8.9 86 86 SSE 3 6 29.40 996 10 16 0.00 0.00
11:53 am 11:53 Cloudy 53 11.7 48 8.9 83 83 SSE 8 13 29.42 996 10 16 0.00 0.00
12:10 pm 12:10 Cloudy 53 11.7 49 9.4 86 86 VRB 6 9 29.42 996 10 16 0.00 0.00
12:45 pm 12:45 Cloudy with Light Rain 53 11.7 49 9.4 86 86 S 8 13 29.43 997 10 16 0.00 0.03
12:53 pm 12:53 Cloudy with Light Rain 52 11.1 49 9.4 89 89 S 8 13 29.45 997 6 10 0.00 0.03
1:02 pm 13:02 Cloudy with Light Rain 52 11.1 50 10 93 93 SSW 10 17 29.44 997 2 3 0.01 0.25
1:11 pm 13:11 Cloudy with Rain 52 11.1 50 10 93 93 SSW 7 11 29.44 997 1 2 0.03 0.76
1:20 pm 13:20 Cloudy with Rain 51 10.6 49 9.4 92 92 Calm 29.46 997 1 2 0.06 1.52
1:34 pm 13:34 Cloudy with Light Rain 52 11.1 49 9.4 89 89 WSW 6 9 29.46 998 2 3 0.08 2.03
1:45 pm 13:45 Cloudy with Light Rain 52 11.1 50 10 93 93 W 9 15 29.46 998 5 8 0.09 2.29
1:53 pm 13:53 Cloudy with Light Rain 52 11.1 49 9.4 89 89 W 9 15 29.47 998 5 8 0.09 2.29
2:53 pm 14:53 Cloudy 54 12.2 48 8.9 80 80 WSW 8 13 29.49 999 10 16 0.00 0.03
3:41 pm 15:41 Cloudy 56 13.3 49 9.4 77 77 W 10 17 29.49 999 10 16 0.00 0.00
3:53 pm 15:53 Cloudy 54 12.2 49 9.4 83 83 WNW 12 19 29.52 1000 10 16 0.00 0.00
4:02 pm 16:02 Cloudy 55 12.8 49 9.4 80 80 WNW 12 19 29.50 999 10 16 0.00 0.00
4:53 pm 16:53 Cloudy 54 12.2 48 8.9 80 80 WNW 12 19 29.56 1001 10 16 0.00 0.00
5:23 pm 17:23 Cloudy 55 12.8 47 8.3 74 74 WNW 10 17 29.56 1001 10 16 0.00 0.00
5:53 pm 17:53 Cloudy 54 12.2 47 8.3 77 77 WNW 10 17 29.60 1003 10 16 0.00 0.00
6:25 pm 18:25 Cloudy 52 11.1 47 8.3 83 83 WNW 16 26 29.62 1003 10 16 0.00 0.00
6:53 pm 18:53 Cloudy 52 11.1 47 8.3 83 83 WNW 12 19 29.65 1004 10 16 0.00 0.00
7:53 pm 19:53 Cloudy 51 10.6 47 8.3 86 86 WNW 14 22 29.69 1005 10 16 0.00 0.00
8:53 pm 20:53 Cloudy 51 10.6 46 7.8 83 83 W 13 20 29.72 1007 10 16 0.00 0.00
9:11 pm 21:11 Cloudy with Light Rain 50 10 47 8.3 89 89 WNW 10 17 29.73 1007 8 13 0.00 0.03
9:18 pm 21:18 Cloudy with Light Rain 49 9.4 46 7.8 90 90 W 10 17 29.73 1007 9 14 0.00 0.03
9:50 pm 21:50 Cloudy 50 10 46 8 88 88 W 12 19 29.75 1007 10 16 0.00 0.03
9:53 pm 21:53 Cloudy 50 10 47 8.3 89 89 W 12 19 29.76 1008 10 16 0.00 0.03
10:50 pm 22:50 Mostly Cloudy 50 10 46 8 88 88 W 12 19 29.79 1009 10 16 0.00 0.00
10:53 pm 22:53 Mostly Cloudy 50 10 46 7.8 86 86 W 12 19 29.79 1009 10 16 0.00 0.00
11:14 pm 23:14 Cloudy 50 10 45 7.2 83 83 WNW 16 26 29.80 1009 10 16 0.00 0.00
11:33 pm 23:33 Cloudy 49 9.4 45 7.2 86 86 W 10 17 29.81 1010 10 16 0.00 0.00
11:53 pm 23:53 Partly Cloudy 48 8.9 45 7.2 89 89 WNW 13 20 29.81 1010 10 16 0.00 0.00

Powered by AerisWeather